Weather History for Yellowstone, WY

Change the Weather History Date:

Monday, February 17, 2014

  Actual Average Record
Temperature  
Mean Temperature 22 °F 15 °F  
Max Temperature 32 °F 28 °F 38 °F (2002)
Min Temperature 12 °F 2 °F -25 °F (2006)
Degree Days  
Heating Degree Days 43 50  
Month to date heating degree days 921 873  
Since 1 July heating degree days 7509 7404  
Cooling Degree Days 0 0  
Month to date cooling degree days 0 0  
Year to date cooling degree days 0 0  
Moisture  
Dew Point 13 °F    
Average Humidity 69    
Maximum Humidity 84    
Minimum Humidity 53    
Precipitation  
Precipitation 0.00 in 0.05 in 0.27 in (2004)
Month to date precipitation 1.93 0.86  
Year to date precipitation 3.84 2.97  
Sea Level Pressure  
Sea Level Pressure 30.00 in    
Wind  
Wind Speed 8 mph (WSW)    
Max Wind Speed 20 mph    
Max Gust Speed 36 mph    
T = Trace of Precipitation, MM = Missing Value Source: NWS Daily Summary

Daily Weather History Graph

Daily Weather History Graph

Search for Another Location

Airport:

Trip Planner

Search our weather history database for the weather conditions in past years. The results will help you decide how hot, cold, wet, or windy it might be!

Date:

Astronomy

Feb. 17, 2014 Rise Set
Actual Time 7:18 AM MST 5:53 PM MST
Civil Twilight 6:48 AM MST 6:23 PM MST
Nautical Twilight 6:14 AM MST 6:57 PM MST
Astronomical Twilight 5:41 AM MST 7:30 PM MST
Moon 9:00 PM MST (2/17) 8:13 AM MST (2/17)
Length of Visible Light 11h 34m
Length of Day
10h 34m
Waning Gibbous, 93% of the Moon is Illuminated
Feb 17
Waning Gibbous
Feb 22
Last Quarter
Mar 1
New
Mar 8
First Quarter
Mar 16
Full

Hourly Weather History & Observations

Time (MST) Temp. Windchill Dew Point Humidity Pressure Visibility Wind Dir Wind Speed Gust Speed Precip Events Conditions
12:56 AM 15.1 °F 9.4 °F 10.0 °F 80% 30.17 in - Variable 3.5 mph - N/A   Unknown
1:56 AM 14.0 °F 8.2 °F 9.0 °F 80% 30.19 in - Variable 3.5 mph - N/A   Unknown
2:56 AM 14.0 °F 8.2 °F 7.0 °F 74% 30.21 in - Variable 3.5 mph - N/A   Unknown
3:56 AM 12.9 °F - 8.1 °F 81% 30.20 in - Calm Calm - N/A   Unknown
4:56 AM 12.9 °F - 8.1 °F 81% 30.19 in - Calm Calm - N/A   Unknown
5:56 AM 14.0 °F - 8.1 °F 77% 30.19 in - Calm Calm - N/A   Unknown
6:56 AM 15.1 °F 9.4 °F 10.0 °F 80% 30.17 in - Variable 3.5 mph - N/A   Unknown
7:56 AM 17.1 °F 10.0 °F 10.9 °F 77% 30.14 in - Variable 4.6 mph - N/A   Unknown
8:56 AM 19.9 °F 13.4 °F 12.9 °F 74% 30.16 in - West 4.6 mph - N/A   Unknown
9:56 AM 25.0 °F 19.3 °F 15.1 °F 66% 30.13 in - Variable 4.6 mph - N/A   Unknown
10:56 AM 27.0 °F 18.7 °F 15.1 °F 61% 30.03 in - WSW 8.1 mph 21.9 mph N/A   Unknown
11:56 AM 28.9 °F 19.8 °F 16.0 °F 58% 29.98 in - WSW 10.4 mph 19.6 mph N/A   Unknown
12:56 PM 30.9 °F 23.5 °F 16.0 °F 54% 29.94 in - West 8.1 mph 23.0 mph N/A   Unknown
1:56 PM 30.0 °F 20.5 °F 15.1 °F 54% 29.92 in - WSW 11.5 mph 27.6 mph N/A   Unknown
2:56 PM 30.9 °F 20.7 °F 16.0 °F 54% 29.84 in - West 13.8 mph 26.5 mph N/A   Unknown
3:56 PM 30.0 °F 18.7 °F 15.1 °F 54% 29.85 in - West 16.1 mph 31.1 mph N/A   Unknown
4:56 PM 28.9 °F 18.2 °F 16.0 °F 58% 29.86 in - WSW 13.8 mph 27.6 mph N/A   Unknown
5:56 PM 28.0 °F 16.5 °F 17.1 °F 63% 29.85 in - WSW 15.0 mph 26.5 mph N/A   Unknown
6:56 PM 27.0 °F 15.2 °F 16.0 °F 63% 29.86 in - West 15.0 mph 25.3 mph N/A   Unknown
7:56 PM 28.0 °F 18.1 °F 15.1 °F 58% 29.84 in - WSW 11.5 mph 25.3 mph N/A   Unknown
8:56 PM 27.0 °F 16.1 °F 16.0 °F 63% 29.84 in - West 12.7 mph 21.9 mph N/A   Unknown
9:56 PM 26.1 °F 17.6 °F 16.0 °F 66% 29.80 in - West 8.1 mph - N/A   Unknown
10:56 PM 25.0 °F 18.1 °F 15.1 °F 66% 29.79 in - Variable 5.8 mph - N/A   Unknown
11:56 PM 24.1 °F 16.0 °F 14.0 °F 65% 29.75 in - Variable 6.9 mph - N/A   Unknown